Wind_Speed
21 22 22 21 22 22 21 21 22 23 24 25 25 25 24 24 25 26 26 26 26 28 30 31 31 32 32 32 32 33 33 33 33 34 35 35 35 35
21 21 21 21 21 20 20 21 22 22 22 23 24 25 24 24 25 25 25 26 27 28 29 29 30 31 31 32 32 33 33 33 33 34 35 35 34 34
21 21 21 20 21 21 21 21 22 22 21 22 23 24 24 24 24 24 24 25 26 27 27 28 29 29 30 31 31 31 32 33 33 33 33 34 34 34
20 20 20 21 20 20 20 21 22 22 22 21 22 22 23 24 24 23 23 24 24 25 25 26 27 28 28 29 30 30 31 32 33 33 32 32 33 33
19 19 20 20 19 19 19 20 21 21 21 21 22 22 22 22 23 23 23 23 23 23 24 25 25 26 26 27 28 29 29 30 31 31 31 31 31 32
19 19 19 18 18 19 19 20 21 21 21 22 21 21 21 22 23 22 22 22 22 22 22 23 24 25 25 27 28 28 29 29 29 30 30 31 31 32
18 18 18 18 18 19 19 19 20 20 21 21 20 20 20 21 22 21 21 21 21 21 22 22 23 24 25 26 28 28 28 29 30 30 30 30 31 32
18 18 17 17 17 17 18 18 18 19 20 19 19 19 18 19 20 20 20 20 21 21 22 22 23 24 25 26 27 28 28 29 30 30 30 31 31 31
18 17 17 17 17 17 17 17 16 16 16 16 17 17 17 18 18 19 19 20 20 21 21 22 23 24 25 25 26 27 28 28 29 30 30 31 31 31
18 17 17 16 16 17 16 16 15 14 15 15 16 16 16 16 16 16 17 18 19 20 20 21 22 23 24 25 25 26 27 28 29 30 31 31 31 31
17 17 17 16 16 15 15 15 14 14 14 14 14 13 13 13 14 14 15 16 18 19 20 19 20 21 22 24 25 26 26 27 28 29 30 30 30 31
17 17 16 16 15 15 14 14 13 13 12 12 11 12 11 12 12 13 14 15 16 17 18 19 19 21 21 23 24 25 26 27 28 29 30 30 30 30
17 17 16 15 15 14 14 14 13 12 11 11 11 11 11 12 13 14 15 15 16 17 18 19 19 20 21 22 23 25 26 27 28 29 30 30 31 30
17 17 16 15 14 14 13 13 13 12 12 12 12 12 12 12 13 14 14 15 16 16 17 18 19 20 21 21 22 23 25 27 27 28 29 30 31 31
17 16 15 15 14 14 13 13 13 13 13 13 13 13 13 13 13 14 14 15 16 16 18 19 19 20 21 21 22 23 24 25 26 27 28 29 29 30
16 16 16 16 15 14 14 14 14 14 14 14 14 14 14 14 14 14 15 16 16 17 18 19 19 20 21 21 22 23 23 23 24 25 26 27 28 29
16 16 16 16 16 16 16 15 15 15 15 15 15 15 15 16 16 16 16 17 17 18 18 19 19 20 20 21 22 22 22 23 23 24 24 25 26 27
18 17 17 17 17 16 16 16 16 16 16 16 16 16 16 16 17 17 17 18 18 19 19 19 20 20 21 21 22 22 22 22 22 23 23 23 23 25
19 18 18 18 18 17 17 17 17 17 17 17 17 17 17 17 18 18 18 19 19 19 19 20 20 20 20 21 21 22 22 23 23 23 23 23 23 24
20 19 19 19 19 19 19 19 19 18 17 18 18 19 19 19 19 20 20 20 20 20 20 20 20 20 20 21 22 22 23 23 23 23 23 24 24 24
22 21 20 20 20 20 20 20 19 18 18 18 19 19 19 19 19 20 20 20 21 21 21 20 20 21 21 21 21 21 22 22 22 23 23 24 24 24
22 22 21 21 21 21 21 20 20 19 19 20 20 20 20 20 20 20 20 21 21 21 21 21 21 22 22 22 22 22 22 23 23 23 24 25 25 24
23 23 22 23 23 23 22 22 22 22 22 22 22 21 21 21 21 21 22 22 22 22 22 22 21 21 22 22 21 22 22 22 22 22 22 23 24 24
Wind_Direction
295 295 296 293 289 284 279 277 275 273 271 271 271 270 266 265 264 262 259 257 255 253 253 252 250 248 247 248 247 246 244 243 242 242 242 242 245 246
295 295 296 293 290 286 281 279 277 275 273 271 269 268 267 266 264 262 260 258 255 254 253 251 249 248 247 247 246 246 244 242 241 241 241 242 244 246
299 297 295 294 291 287 283 280 279 277 274 272 270 268 266 266 265 265 262 259 257 256 254 252 249 248 247 246 245 244 243 242 241 241 243 244 244 245
301 299 297 296 293 290 286 282 280 279 277 274 272 271 269 266 266 265 263 259 257 255 254 252 250 248 246 245 244 242 242 243 243 243 244 244 244 245
303 303 301 300 297 294 290 285 282 282 281 278 274 272 269 267 266 265 263 260 257 255 254 253 251 249 246 244 243 242 243 243 243 244 245 245 246 246
306 306 305 303 300 297 294 289 285 283 282 280 277 274 270 269 268 267 264 259 256 255 255 253 251 250 248 246 245 243 244 244 244 245 246 246 247 247
308 307 307 306 303 299 297 294 290 285 282 281 279 275 273 271 268 266 263 259 257 256 256 254 253 250 249 248 246 244 244 244 245 246 247 247 248 247
313 311 311 310 308 303 301 300 295 289 284 281 279 276 275 272 268 264 261 259 258 256 257 257 255 253 250 249 249 247 245 246 246 246 247 246 248 249
316 314 313 311 310 308 307 305 300 295 290 285 279 277 276 274 270 265 260 258 259 259 259 260 258 255 252 252 250 248 246 246 247 247 248 248 248 249
319 317 315 314 313 310 306 305 303 300 296 290 285 280 277 275 272 268 262 261 261 261 260 262 259 257 255 254 252 250 248 248 247 247 248 249 249 250
325 324 321 315 313 313 311 310 308 305 300 293 288 284 280 276 274 269 263 263 265 265 263 264 261 259 258 256 255 252 249 250 250 249 250 250 251 251
329 328 326 322 319 316 315 314 313 309 305 300 294 288 284 280 277 275 271 270 270 269 268 266 264 261 261 261 257 254 252 253 252 252 252 252 252 252
334 331 330 328 324 320 318 317 316 313 309 304 299 295 292 287 283 281 278 278 277 275 273 271 268 264 260 261 260 258 257 257 256 255 255 254 252 252
336 332 330 328 327 327 324 321 319 315 312 309 305 302 298 294 290 286 283 281 280 278 276 275 271 266 264 263 263 261 259 259 259 258 258 257 255 252
337 335 331 328 326 325 326 324 319 315 313 312 310 308 304 300 296 292 289 289 284 280 279 279 275 270 267 267 266 265 263 261 260 260 259 257 256 255
338 336 334 333 327 322 321 321 319 316 312 309 310 308 304 301 298 296 292 290 286 284 281 279 277 273 272 270 269 267 265 266 263 261 261 259 257 256
342 338 335 332 330 326 321 319 316 313 311 309 306 304 302 300 299 298 294 291 290 288 286 282 280 276 274 271 269 269 267 267 264 263 263 263 260 257
338 339 337 334 331 329 324 320 317 314 310 309 305 301 300 300 298 297 295 293 294 292 288 285 283 278 275 272 272 271 271 271 269 266 264 264 263 260
335 333 333 332 329 327 325 324 321 316 311 308 304 302 301 299 298 298 297 296 294 293 291 288 284 280 277 274 273 272 271 270 268 267 267 265 263 262
335 331 329 327 326 325 323 321 319 316 313 311 309 306 303 300 298 298 298 297 296 294 292 290 287 285 283 278 274 272 271 270 267 266 266 264 263 263
333 330 329 327 325 324 323 322 319 316 314 312 311 309 305 303 301 298 297 297 298 296 293 291 287 285 284 282 278 274 272 271 270 269 267 264 264 265
332 329 328 327 326 324 321 320 319 316 315 313 311 311 307 304 303 301 299 298 296 296 295 290 286 286 286 284 280 276 273 271 272 272 269 267 268 267
332 329 327 326 325 323 320 317 316 314 312 311 310 307 305 305 304 303 300 299 297 295 295 293 290 289 287 284 280 277 274 271 271 270 269 268 269 269
Height
5733 5731 5728 5726 5724 5722 5721 5720 5720 5719 5718 5717 5717 5717 5716 5716 5716 5716 5717 5717 5718 5719 5720 5722 5724 5725 5727 5729 5730 5732 5734 5737 5739 5741 5744 5746 5749 5751
5728 5725 5723 5720 5718 5716 5714 5713 5712 5712 5711 5710 5710 5709 5709 5709 5709 5709 5709 5709 5710 5711 5712 5713 5715 5717 5718 5720 5722 5724 5726 5728 5731 5733 5735 5738 5740 5743
5722 5720 5717 5714 5712 5710 5708 5707 5705 5704 5704 5704 5702 5702 5702 5701 5701 5701 5701 5701 5702 5703 5704 5705 5707 5708 5710 5712 5714 5716 5718 5720 5722 5725 5727 5730 5732 5734
5717 5714 5712 5709 5706 5704 5702 5700 5699 5697 5697 5697 5696 5695 5694 5694 5694 5694 5694 5694 5694 5695 5696 5698 5699 5700 5702 5704 5706 5708 5710 5712 5715 5717 5719 5722 5723 5725
5712 5709 5706 5703 5701 5698 5696 5694 5693 5691 5690 5690 5689 5688 5687 5687 5687 5687 5687 5687 5687 5688 5689 5690 5691 5693 5694 5696 5698 5700 5702 5705 5707 5709 5711 5713 5715 5717
5707 5704 5701 5698 5695 5693 5691 5688 5687 5685 5684 5683 5682 5681 5680 5680 5680 5679 5680 5680 5681 5682 5682 5683 5684 5685 5687 5688 5690 5692 5694 5696 5698 5700 5702 5705 5707 5709
5702 5699 5696 5693 5691 5688 5685 5683 5681 5679 5678 5676 5675 5675 5674 5673 5673 5673 5673 5673 5674 5675 5676 5677 5678 5679 5680 5681 5683 5685 5687 5689 5691 5693 5694 5696 5698 5700
5698 5695 5692 5689 5686 5683 5680 5678 5675 5673 5672 5670 5669 5668 5668 5667 5666 5666 5666 5667 5668 5669 5669 5670 5671 5672 5672 5674 5675 5677 5679 5681 5682 5684 5686 5688 5689 5691
5695 5691 5688 5685 5682 5679 5676 5673 5671 5668 5667 5665 5664 5663 5662 5661 5661 5661 5661 5661 5662 5662 5663 5664 5664 5665 5666 5666 5668 5669 5671 5673 5674 5676 5678 5679 5681 5682
5691 5688 5685 5681 5678 5675 5673 5670 5667 5665 5662 5661 5659 5658 5657 5656 5656 5655 5655 5656 5656 5656 5656 5657 5657 5658 5659 5659 5661 5662 5663 5665 5666 5667 5669 5670 5672 5673
5688 5685 5681 5678 5675 5672 5669 5666 5664 5661 5659 5657 5655 5654 5653 5652 5651 5651 5651 5651 5651 5650 5650 5651 5651 5651 5652 5652 5653 5654 5656 5657 5658 5659 5660 5662 5663 5665
5685 5681 5678 5675 5672 5669 5666 5663 5661 5658 5656 5654 5652 5651 5649 5648 5647 5646 5646 5646 5645 5645 5645 5645 5645 5645 5646 5646 5646 5647 5648 5649 5650 5651 5652 5653 5654 5655
5682 5678 5675 5672 5669 5666 5663 5661 5658 5656 5653 5651 5649 5648 5646 5644 5643 5642 5642 5641 5641 5640 5639 5639 5639 5639 5639 5639 5639 5639 5640 5640 5641 5642 5643 5644 5645 5647
5680 5676 5673 5670 5666 5663 5660 5658 5655 5653 5651 5649 5647 5645 5643 5642 5640 5639 5638 5637 5636 5635 5634 5633 5633 5632 5632 5632 5632 5633 5633 5633 5633 5634 5634 5635 5636 5637
5678 5674 5671 5667 5664 5661 5658 5655 5653 5651 5649 5646 5644 5642 5640 5639 5637 5635 5634 5632 5631 5630 5628 5627 5627 5626 5626 5626 5626 5625 5625 5625 5625 5625 5626 5627 5627 5628
5676 5672 5669 5665 5662 5659 5656 5653 5651 5648 5646 5644 5642 5639 5637 5636 5634 5632 5630 5628 5627 5625 5624 5622 5621 5620 5619 5619 5618 5618 5618 5618 5618 5617 5618 5618 5619 5619
5674 5670 5667 5663 5660 5656 5654 5651 5648 5646 5643 5640 5638 5636 5634 5632 5630 5628 5626 5624 5622 5620 5618 5616 5615 5614 5613 5612 5611 5611 5610 5610 5610 5609 5610 5610 5611 5611
5672 5668 5665 5661 5658 5654 5651 5648 5645 5642 5640 5637 5635 5632 5630 5628 5626 5624 5621 5619 5617 5615 5613 5611 5609 5608 5607 5605 5605 5604 5603 5602 5602 5602 5602 5602 5602 5603
5669 5666 5662 5658 5655 5651 5648 5645 5642 5638 5636 5633 5631 5628 5625 5623 5621 5619 5616 5614 5612 5610 5607 5605 5603 5601 5600 5599 5598 5597 5596 5595 5594 5594 5594 5594 5594 5595
5667 5663 5659 5655 5651 5648 5644 5641 5638 5635 5632 5629 5626 5623 5620 5618 5615 5613 5611 5609 5606 5604 5601 5599 5597 5595 5593 5592 5591 5590 5588 5587 5587 5587 5587 5586 5586 5587
5664 5659 5655 5651 5647 5644 5640 5637 5633 5630 5627 5624 5621 5618 5615 5612 5610 5607 5605 5602 5600 5597 5595 5593 5591 5588 5586 5585 5583 5582 5581 5580 5580 5579 5579 5579 5579 5579
5660 5655 5651 5647 5643 5639 5635 5632 5628 5625 5622 5618 5615 5612 5609 5606 5604 5601 5599 5596 5593 5591 5588 5586 5584 5582 5580 5578 5576 5575 5574 5573 5572 5572 5571 5572 5571 5571
5655 5651 5647 5642 5638 5634 5630 5626 5623 5619 5616 5613 5609 5606 5603 5600 5597 5595 5592 5589 5587 5584 5581 5579 5577 5574 5572 5570 5569 5568 5567 5566 5565 5565 5565 5564 5563 5563